EW6604 Weather Reports


Display with metric or nautical units.
time (UTC)temp
F
wind
direction
speed
MPH
gust
MPH
rain 1hr
in
rain 24hr
in
rain mn
in
humidity
%
barometer
mb
20260509011216 74 40 5.0 9.0 0.00 0.59 0.59 95 1014.0
20260509010246 74 340 7.0 9.0 0.00 0.59 0.59 95 1014.1
20260509005729 74 2 5.0 7.0 0.00 0.59 0.59 95 1014.0
20260509005218 74 355 5.0 8.0 0.00 0.59 0.59 95 1013.8
20260509004723 74 338 5.0 11.0 0.00 0.59 0.59 95 1013.8
20260509004228 74 43 7.0 10.0 0.00 0.59 0.59 95 1013.6
20260509003730 74 63 8.0 10.0 0.00 0.59 0.59 95 1013.5
20260509003217 74 130 0.0 1.0 0.00 0.59 0.59 95 1013.8
20260509002721 74 139 0.0 8.0 0.00 0.59 0.59 95 1014.0
20260509002226 74 94 5.0 10.0 0.00 0.59 0.59 95 1013.8
20260509001731 74 60 8.0 10.0 0.00 0.59 0.59 95 1013.7
20260509001216 74 67 7.0 10.0 0.00 0.59 0.59 95 1013.6
20260509000750 74 80 7.0 11.0 0.00 0.59 0.59 95 1013.7
20260509000216 74 70 9.0 13.0 0.00 0.59 0.59 95 1013.6
20260508235720 74 78 9.0 12.0 0.00 0.59 0.59 95 1013.4
20260508235228 75 74 8.0 10.0 0.00 0.59 0.59 95 1013.4
20260508234713 74 72 8.0 10.0 0.01 0.59 0.59 94 1013.3
20260508234217 74 69 6.0 11.0 0.02 0.59 0.59 94 1013.5
20260508233722 74 70 8.0 11.0 0.02 0.59 0.59 94 1013.4
20260508233227 74 63 9.0 10.0 0.03 0.59 0.59 94 1013.1
20260508232731 74 75 8.0 11.0 0.04 0.59 0.59 94 1013.1
20260508232216 74 75 8.0 13.0 0.05 0.59 0.59 94 1013.0
20260508231721 74 61 11.0 15.0 0.06 0.59 0.59 94 1012.8
20260508231206 74 71 11.0 16.0 0.11 0.59 0.59 95 1012.6
20260508230711 74 66 13.0 16.0 0.19 0.59 0.59 94 1012.4
20260508230221 74 68 13.0 16.0 0.36 0.59 0.59 94 1012.4
20260508225724 74 80 13.0 15.0 0.52 0.59 0.59 94 1012.6
20260508225208 74 82 11.0 17.0 0.56 0.59 0.59 94 1013.0
20260508224713 74 59 12.0 17.0 0.57 0.58 0.58 95 1012.8
20260508224236 73 64 10.0 14.0 0.57 0.57 0.57 94 1012.7
20260508223721 74 32 9.0 12.0 0.57 0.57 0.57 94 1012.8
20260508223204 74 48 8.0 16.0 0.56 0.56 0.56 94 1012.9
20260508222709 74 41 10.0 16.0 0.55 0.55 0.55 94 1012.5
20260508222213 74 35 12.0 16.0 0.54 0.54 0.54 93 1012.1
20260508221718 74 25 11.0 14.0 0.52 0.52 0.52 93 1012.4
20260508221223 74 13 10.0 12.0 0.48 0.48 0.48 93 1012.7
20260508220722 75 339 5.0 11.0 0.38 0.38 0.38 93 1012.9
20260508220210 75 344 6.0 20.0 0.19 0.19 0.19 92 1013.2
20260508215711 76 12 14.0 24.0 0.06 0.06 0.06 91 1012.8
20260508215216 77 43 18.0 24.0 0.03 0.03 0.03 90 1011.8
20260508214738 78 41 17.0 21.0 0.01 0.01 0.01 88 1011.3
20260508214220 78 38 17.0 20.0 0.00 0.00 0.00 86 1011.7
20260508213723 79 44 13.0 18.0 0.00 0.00 0.00 86 1011.8
20260508213224 79 54 13.0 18.0 0.00 0.00 0.00 85 1011.4
20260508212708 79 40 13.0 16.0 0.00 0.00 0.00 85 1011.4
20260508212209 80 40 13.0 16.0 0.00 0.00 0.00 85 1011.8
20260508211714 80 37 12.0 17.0 0.00 0.00 0.00 84 1012.0
20260508211218 80 56 11.0 18.0 0.00 0.00 0.00 85 1011.8
20260508210721 81 78 13.0 18.0 0.00 0.00 0.00 84 1011.7
20260508210208 81 75 14.0 22.0 0.00 0.00 0.00 86 1011.3
20260508205709 81 73 18.0 22.0 0.00 0.00 0.00 84 1011.2
20260508205231 81 68 18.0 21.0 0.00 0.00 0.00 84 1011.2
20260508204734 81 66 17.0 21.0 0.00 0.00 0.00 84 1011.1
20260508204216 82 66 17.0 21.0 0.00 0.00 0.00 83 1011.2
20260508203740 82 76 17.0 19.0 0.00 0.00 0.00 81 1011.3
20260508203221 82 69 16.0 18.0 0.00 0.00 0.00 81 1011.4
20260508202724 83 53 16.0 18.0 0.00 0.00 0.00 81 1011.5
20260508202206 83 77 13.0 18.0 0.00 0.00 0.00 81 1011.4
20260508201709 83 68 10.0 15.0 0.00 0.00 0.00 81 1011.4
20260508201212 83 59 11.0 15.0 0.00 0.00 0.00 80 1011.4
20260508200711 83 64 12.0 16.0 0.00 0.00 0.00 81 1011.4
20260508200216 83 59 12.0 16.0 0.00 0.00 0.00 81 1011.5
20260508195718 83 56 10.0 13.0 0.00 0.00 0.00 80 1011.7
20260508195241 84 70 12.0 13.0 0.00 0.00 0.00 79 1011.8
20260508194725 84 61 10.0 13.0 0.00 0.00 0.00 80 1011.9
20260508194212 83 67 11.0 13.0 0.00 0.00 0.00 80 1012.0
20260508193715 84 57 9.0 11.0 0.00 0.00 0.00 79 1012.1
20260508193220 84 66 8.0 10.0 0.00 0.00 0.00 79 1012.1
20260508192744 84 91 7.0 11.0 0.00 0.00 0.00 79 1012.2
20260508192228 83 82 10.0 11.0 0.00 0.00 0.00 79 1012.4
20260508191712 83 69 8.0 10.0 0.00 0.00 0.00 79 1012.3
20260508191237 83 75 9.0 11.0 0.00 0.00 0.00 81 1012.4
20260508190721 83 63 10.0 11.0 0.00 0.00 0.00 80 1012.5
20260508190207 83 60 8.0 11.0 0.00 0.00 0.00 81 1012.6
20260508185711 83 44 8.0 12.0 0.00 0.00 0.00 81 1012.7
20260508185216 83 70 9.0 13.0 0.00 0.00 0.00 81 1012.8
20260508184721 83 61 8.0 13.0 0.00 0.00 0.00 81 1012.8
20260508184223 83 68 10.0 13.0 0.00 0.00 0.00 82 1013.0
20260508183711 83 70 11.0 13.0 0.00 0.00 0.00 80 1013.1
20260508183217 83 54 9.0 12.0 0.00 0.00 0.00 80 1013.2
20260508182720 84 63 9.0 12.0 0.00 0.00 0.00 80 1013.2
20260508182204 84 65 6.0 8.0 0.00 0.00 0.00 77 1013.3
20260508181709 84 65 3.0 6.0 0.00 0.00 0.00 78 1013.5
20260508181234 83 65 5.0 6.0 0.00 0.00 0.00 77 1013.5
20260508180706 83 61 5.0 6.0 0.00 0.00 0.00 79 1013.6
20260508180211 83 43 4.0 8.0 0.00 0.00 0.00 78 1013.5
20260508175724 83 35 5.0 8.0 0.00 0.00 0.00 78 1013.7
20260508175204 83 38 5.0 6.0 0.00 0.00 0.00 78 1013.8
20260508174709 83 61 4.0 5.0 0.00 0.00 0.00 77 1013.8
20260508174214 83 61 4.0 5.0 0.00 0.00 0.00 77 1013.8
20260508173718 83 51 4.0 5.0 0.00 0.00 0.00 78 1013.9
20260508173224 83 37 3.0 4.0 0.00 0.00 0.00 77 1013.9
20260508172712 83 30 2.0 3.0 0.00 0.00 0.00 77 1014.0
20260508172217 83 10 2.0 3.0 0.00 0.00 0.00 78 1014.0
20260508171723 82 68 2.0 4.0 0.00 0.00 0.00 78 1014.0
20260508171207 82 69 2.0 4.0 0.00 0.00 0.00 79 1014.2
20260508170731 82 58 3.0 4.0 0.00 0.00 0.00 79 1014.3
20260508170217 82 53 3.0 5.0 0.00 0.00 0.00 79 1014.4
20260508165721 82 54 4.0 5.0 0.00 0.00 0.00 79 1014.4
20260508165225 82 57 3.0 5.0 0.00 0.00 0.00 79 1014.5
20260508164710 82 57 4.0 5.0 0.00 0.00 0.00 80 1014.6
20260508164234 82 51 3.0 5.0 0.00 0.00 0.00 80 1014.6
20260508163717 82 49 4.0 4.0 0.00 0.00 0.00 81 1014.6
20260508163220 81 59 3.0 4.0 0.00 0.00 0.00 81 1014.7
20260508162709 81 28 3.0 4.0 0.00 0.00 0.00 82 1014.7
20260508162214 81 56 2.0 3.0 0.00 0.00 0.00 81 1014.7
20260508161718 81 83 2.0 3.0 0.00 0.00 0.00 81 1014.9
20260508161243 81 81 2.0 3.0 0.00 0.00 0.00 81 1015.0
20260508160709 81 72 2.0 3.0 0.00 0.00 0.00 82 1015.1
20260508160212 81 80 2.0 2.0 0.00 0.00 0.00 82 1015.1
20260508155737 81 68 1.0 3.0 0.00 0.00 0.00 82 1015.2
20260508155241 81 64 2.0 4.0 0.00 0.00 0.00 82 1015.3
20260508154705 80 60 4.0 5.0 0.00 0.00 0.00 82 1015.2
20260508154209 81 54 4.0 5.0 0.00 0.00 0.00 82 1015.2
20260508153714 81 51 4.0 4.0 0.00 0.00 0.00 82 1015.4
20260508153224 81 59 3.0 4.0 0.00 0.00 0.00 82 1015.4
20260508152709 81 36 2.0 4.0 0.00 0.00 0.00 82 1015.5
20260508152214 81 36 3.0 4.0 0.00 0.00 0.00 83 1015.4
20260508151719 81 28 2.0 2.0 0.00 0.00 0.00 82 1015.5
20260508151244 81 34 1.0 2.0 0.00 0.00 0.00 82 1015.6
20260508150708 80 34 0.0 2.0 0.00 0.00 0.00 84 1015.6
20260508150214 80 46 0.0 2.0 0.00 0.00 0.00 84 1015.7
20260508145719 80 46 2.0 2.0 0.00 0.00 0.00 84 1015.7
20260508145224 80 46 1.0 3.0 0.00 0.00 0.00 85 1015.6
20260508144709 80 49 2.0 3.0 0.00 0.00 0.00 85 1015.6
20260508144213 80 51 3.0 3.0 0.00 0.00 0.00 84 1015.4
20260508143722 80 51 3.0 4.0 0.00 0.00 0.00 85 1015.4
20260508143224 80 58 3.0 4.0 0.00 0.00 0.00 85 1015.4
20260508142709 80 40 2.0 3.0 0.00 0.00 0.00 85 1015.4
20260508142214 80 15 1.0 2.0 0.00 0.00 0.00 85 1015.4
20260508141739 79 29 1.0 2.0 0.00 0.00 0.00 85 1015.4
20260508141223 79 23 1.0 3.0 0.00 0.00 0.00 86 1015.4
20260508140720 79 22 1.0 4.0 0.00 0.00 0.00 86 1015.4
20260508140224 79 294 2.0 4.0 0.00 0.00 0.00 86 1015.4
20260508135709 79 250 2.0 4.0 0.00 0.00 0.00 86 1015.4
20260508135212 79 273 2.0 6.0 0.00 0.00 0.00 87 1015.3
20260508134707 79 279 3.0 5.0 0.00 0.00 0.00 87 1015.3
20260508134214 79 313 2.0 6.0 0.00 0.00 0.00 87 1015.4
20260508133714 78 280 3.0 7.0 0.00 0.00 0.00 88 1015.4
20260508133212 78 266 6.0 7.0 0.00 0.00 0.00 88 1015.5
20260508132714 78 299 2.0 4.0 0.00 0.00 0.00 89 1015.4
20260508132216 78 279 1.0 4.0 0.00 0.00 0.00 89 1015.3
20260508131739 77 281 0.0 6.0 0.00 0.00 0.00 90 1015.3
20260508131220 77 279 4.0 6.0 0.00 0.00 0.00 91 1015.2
20260508130206 77 289 6.0 8.0 0.00 0.00 0.00 91 1015.2
20260508125707 77 285 3.0 8.0 0.00 0.00 0.00 91 1015.2
20260508125209 77 273 5.0 8.0 0.00 0.00 0.00 91 1015.1
20260508124711 77 278 5.0 10.0 0.00 0.00 0.00 91 1015.1
20260508124211 77 274 7.0 12.0 0.00 0.00 0.00 91 1015.1
20260508123710 76 284 6.0 12.0 0.00 0.00 0.00 92 1015.0
20260508123213 76 290 4.0 8.0 0.00 0.00 0.00 92 1015.0
20260508122719 76 280 4.0 6.0 0.00 0.00 0.00 93 1015.1
20260508122219 76 275 5.0 6.0 0.00 0.00 0.00 93 1015.0
20260508121721 76 267 3.0 6.0 0.00 0.00 0.00 93 1014.9
20260508120728 76 163 0.0 0.0 0.00 0.00 0.00 94 1014.7
20260508120231 76 163 0.0 0.0 0.00 0.00 0.00 94 1014.6
20260508115714 75 163 0.0 0.0 0.00 0.00 0.00 94 1014.6
20260508115214 75 163 0.0 1.0 0.00 0.00 0.00 94 1014.6
20260508114737 75 163 0.0 1.0 0.00 0.00 0.00 94 1014.5
20260508114219 75 194 0.0 3.0 0.00 0.00 0.00 94 1014.5
20260508113211 74 201 1.0 3.0 0.00 0.00 0.00 94 1014.5
20260508112714 74 212 0.0 3.0 0.00 0.00 0.00 94 1014.3
20260508112217 74 227 1.0 4.0 0.00 0.00 0.00 95 1014.3
20260508111710 74 237 2.0 5.0 0.00 0.00 0.00 95 1014.4
20260508111243 74 226 3.0 5.0 0.00 0.00 0.00 95 1014.3
20260508110724 74 217 1.0 2.0 0.00 0.00 0.00 95 1014.1
20260508110208 73 198 0.0 1.0 0.00 0.00 0.00 94 1014.0
20260508105711 73 198 0.0 1.0 0.00 0.00 0.00 94 1013.9
20260508105211 73 198 0.0 1.0 0.00 0.00 0.00 94 1013.9
20260508104734 73 210 0.0 2.0 0.00 0.00 0.00 94 1013.9
20260508104236 73 211 0.0 2.0 0.00 0.00 0.00 94 1013.8
20260508103707 73 207 0.0 0.0 0.00 0.00 0.00 94 1013.8
20260508103225 73 207 0.0 1.0 0.00 0.00 0.00 94 1013.7
20260508102708 73 208 0.0 1.0 0.00 0.00 0.00 94 1013.7
20260508102211 73 208 0.0 0.0 0.00 0.00 0.00 94 1013.6
20260508101714 73 208 0.0 0.0 0.00 0.00 0.00 94 1013.4
20260508101213 73 208 0.0 0.0 0.00 0.00 0.00 94 1013.5
20260508100734 73 208 0.0 1.0 0.00 0.00 0.00 94 1013.4
20260508100234 73 208 0.0 1.0 0.00 0.00 0.00 94 1013.3
20260508095738 73 206 0.0 1.0 0.00 0.00 0.00 94 1013.2
20260508095242 73 205 0.0 1.0 0.00 0.00 0.00 94 1013.2
20260508094724 73 205 0.0 1.0 0.00 0.00 0.00 93 1013.1
20260508094208 73 212 0.0 2.0 0.00 0.00 0.00 93 1013.1
20260508093712 73 217 0.0 2.0 0.00 0.00 0.00 93 1013.1
20260508093236 73 210 0.0 1.0 0.00 0.00 0.00 93 1013.1
20260508092718 73 210 0.0 1.0 0.00 0.00 0.00 93 1013.1
20260508092242 73 210 0.0 0.0 0.00 0.00 0.00 93 1013.0
20260508091705 73 209 0.0 1.0 0.00 0.00 0.00 93 1013.0
20260508091209 73 210 0.0 1.0 0.00 0.00 0.00 93 1012.9
20260508090732 74 210 0.0 1.0 0.00 0.00 0.00 93 1013.0
20260508090217 74 210 0.0 1.0 0.00 0.00 0.00 93 1013.0
20260508085721 74 210 0.0 2.0 0.00 0.00 0.00 93 1012.9
20260508085209 74 221 1.0 2.0 0.00 0.00 0.00 93 1013.0
20260508084732 74 222 1.0 2.0 0.00 0.00 0.00 92 1013.0
20260508084215 74 217 0.0 3.0 0.00 0.00 0.00 92 1013.0
20260508083719 74 224 1.0 3.0 0.00 0.00 0.00 92 1013.0
20260508083244 74 212 1.0 3.0 0.00 0.00 0.00 92 1013.1
20260508082727 74 230 0.0 4.0 0.00 0.00 0.00 92 1013.1
20260508082210 75 245 1.0 4.0 0.00 0.00 0.00 92 1013.1
20260508081715 74 265 2.0 4.0 0.00 0.00 0.00 92 1013.1
20260508081219 74 260 0.0 3.0 0.00 0.00 0.00 92 1013.0
20260508080728 74 260 1.0 3.0 0.00 0.00 0.00 92 1013.1
20260508080212 75 249 2.0 3.0 0.00 0.00 0.00 92 1013.1
20260508075717 75 236 1.0 2.0 0.00 0.00 0.00 92 1013.1
20260508075241 75 233 0.0 2.0 0.00 0.00 0.00 91 1013.1
20260508074723 75 266 2.0 3.0 0.00 0.00 0.00 91 1013.2
20260508074205 75 258 1.0 3.0 0.00 0.00 0.00 91 1013.2
20260508073731 75 246 1.0 3.0 0.00 0.00 0.00 91 1013.3
20260508073215 75 263 2.0 4.0 0.00 0.00 0.00 91 1013.4
20260508072739 75 255 3.0 4.0 0.00 0.00 0.00 91 1013.4
20260508072205 75 271 1.0 3.0 0.00 0.00 0.00 91 1013.4
20260508071730 75 275 2.0 4.0 0.00 0.00 0.00 91 1013.4
20260508071231 75 203 1.0 4.0 0.00 0.00 0.00 91 1013.4
20260508070715 75 272 2.0 4.0 0.00 0.00 0.00 91 1013.5
20260508070222 75 269 1.0 4.0 0.00 0.00 0.00 91 1013.6
20260508065705 75 271 3.0 4.0 0.00 0.00 0.00 90 1013.6
20260508065210 75 267 2.0 4.0 0.00 0.00 0.00 90 1013.7
20260508064714 75 247 2.0 4.0 0.00 0.00 0.00 90 1013.6
20260508064219 75 268 2.0 5.0 0.00 0.00 0.00 90 1013.7
20260508063722 75 260 3.0 5.0 0.00 0.00 0.00 90 1013.7
20260508063207 75 261 2.0 5.0 0.00 0.00 0.00 89 1013.7
20260508062711 75 258 3.0 4.0 0.00 0.00 0.00 89 1013.6
20260508062219 76 263 2.0 6.0 0.00 0.00 0.00 89 1013.7
20260508061724 76 258 3.0 6.0 0.00 0.00 0.00 89 1013.7
20260508061246 76 272 3.0 5.0 0.00 0.00 0.00 88 1013.7
20260508060728 76 241 3.0 4.0 0.00 0.00 0.00 88 1013.8
20260508060212 76 267 3.0 4.0 0.00 0.00 0.00 88 1013.8
20260508055716 76 264 3.0 4.0 0.00 0.00 0.00 88 1013.7
20260508055219 76 196 1.0 4.0 0.00 0.00 0.00 87 1013.8
20260508054724 76 265 3.0 4.0 0.00 0.00 0.00 87 1013.8
20260508054208 76 257 3.0 7.0 0.00 0.00 0.00 87 1013.9
20260508053711 76 279 4.0 7.0 0.00 0.00 0.00 87 1013.9
20260508053217 76 286 3.0 7.0 0.00 0.00 0.00 86 1013.9
20260508052721 76 266 4.0 7.0 0.00 0.00 0.00 86 1014.0
20260508052225 76 251 4.0 7.0 0.00 0.00 0.00 86 1014.0
20260508051739 76 278 3.0 5.0 0.00 0.00 0.00 86 1014.0
20260508051222 76 272 3.0 7.0 0.00 0.00 0.00 85 1014.1
20260508050706 76 255 4.0 7.0 0.00 0.00 0.00 85 1014.1
20260508050214 76 248 4.0 6.0 0.00 0.00 0.00 85 1014.1
20260508045718 76 250 3.0 7.0 0.00 0.00 0.00 85 1014.0
20260508045222 76 264 4.0 8.0 0.00 0.00 0.00 84 1014.0
20260508044707 76 278 3.0 6.0 0.00 0.00 0.00 84 1013.9
20260508044210 77 266 4.0 6.0 0.00 0.00 0.00 84 1013.8
20260508043714 77 260 3.0 7.0 0.00 0.00 0.00 83 1013.8
20260508043221 77 240 5.0 7.0 0.00 0.00 0.00 83 1013.9
20260508042706 77 270 3.0 6.0 0.00 0.00 0.00 83 1013.9
20260508042211 77 267 4.0 9.0 0.00 0.00 0.00 83 1013.9
20260508041736 77 272 5.0 9.0 0.00 0.00 0.00 82 1013.7
20260508041218 77 272 5.0 8.0 0.00 0.00 0.00 82 1013.7
20260508040734 77 272 2.0 7.0 0.00 0.00 0.00 81 1013.8
20260508040225 78 276 3.0 6.0 0.00 0.00 0.00 80 1013.9
20260508035707 78 266 4.0 8.0 0.00 0.00 0.00 80 1013.9
20260508035229 78 222 4.0 8.0 0.00 0.00 0.00 79 1013.8
20260508034732 78 295 2.0 5.0 0.00 0.00 0.00 79 1013.8
20260508034213 78 254 3.0 8.0 0.00 0.00 0.00 78 1013.8
20260508033717 78 269 4.0 8.0 0.00 0.00 0.00 78 1013.8
20260508033225 79 264 4.0 6.0 0.00 0.00 0.00 77 1013.8
20260508032728 79 268 3.0 7.0 0.00 0.00 0.00 77 1013.9
20260508032211 79 276 5.0 8.0 0.00 0.00 0.00 77 1013.8
20260508031731 79 249 5.0 8.0 0.00 0.00 0.00 76 1013.7
20260508031213 79 276 4.0 9.0 0.00 0.00 0.00 75 1013.7
20260508030717 79 254 6.0 11.0 0.00 0.00 0.00 75 1013.7
20260508030222 79 275 6.0 11.0 0.00 0.00 0.00 74 1013.5
20260508025745 80 271 6.0 10.0 0.00 0.00 0.00 74 1013.4
20260508025209 80 255 5.0 10.0 0.00 0.00 0.00 73 1013.5
20260508024711 80 262 6.0 11.0 0.00 0.00 0.00 72 1013.4
20260508024215 80 277 6.0 11.0 0.00 0.00 0.00 72 1013.4
20260508023719 80 274 6.0 9.0 0.00 0.00 0.00 72 1013.4
20260508023224 81 216 6.0 11.0 0.00 0.00 0.00 71 1013.3
20260508022711 81 267 8.0 12.0 0.00 0.00 0.00 71 1013.3
20260508022215 81 269 8.0 12.0 0.00 0.00 0.00 70 1013.3
20260508021717 81 272 6.0 11.0 0.00 0.00 0.00 70 1013.2
20260508021223 81 252 5.0 12.0 0.00 0.00 0.00 70 1013.1
20260508020710 81 268 7.0 12.0 0.00 0.00 0.00 69 1013.1
20260508020215 81 267 6.0 9.0 0.00 0.00 0.00 70 1013.0
20260508015718 81 272 5.0 8.0 0.00 0.00 0.00 69 1012.9
20260508015224 81 271 3.0 6.0 0.00 0.00 0.00 70 1012.8
20260508014727 81 273 1.0 6.0 0.00 0.00 0.00 70 1012.7
20260508014207 81 284 4.0 6.0 0.00 0.00 0.00 68 1012.7
20260508013711 82 261 3.0 6.0 0.00 0.00 0.00 67 1012.6
20260508013215 82 276 4.0 6.0 0.00 0.00 0.00 66 1012.5
20260508012739 82 273 4.0 6.0 0.00 0.00 0.00 66 1012.5
20260508012222 82 234 3.0 7.0 0.00 0.00 0.00 66 1012.5
20260508011729 82 279 4.0 7.0 0.00 0.00 0.00 64 1012.4